Date String (YYYY-MM-DD hh:mm:ss) UTC,Instrument flags,Ambient pressure (hPa),Sample flow (lpm),Bypass flow (lpm),Sample temperature (°C),Ambient temperature (°C),ASC tube jacket temperature (°C),LED temperature (°C),Box temperature (°C),Sample RH (%),Span deviation,Mass concentration (μg/m³),Mass concentration (μg/m³),Mass concentration (μg/m³)
DateTimeUTC,F1_M11,P_M11,Q1_M11,Q2_M11,T1_M11,T2_M11,T3_M11,T4_M11,T5_M11,U1_M11,ZSPAN_M11,X0_M11,X2_M11,X1_M11
2023-02-10 19:00:00,,0831.0,5.02,0.00,22.3,20.6,00.0,31.1,24.0,07.3,0000.0,0007.85,0002.86,0002.12
2023-02-10 19:01:00,,0831.0,4.97,0.00,22.3,20.7,00.0,31.1,24.0,07.4,0000.0,0007.12,0002.83,0002.11
2023-02-10 19:02:00,,0831.0,4.99,0.00,22.3,20.7,00.0,31.1,24.0,07.2,0000.0,0008.06,0002.88,0002.12
2023-02-10 19:03:00,,0831.0,5.00,0.00,22.3,20.7,00.0,31.1,24.0,07.4,0000.0,0008.53,0002.88,0002.14
2023-02-10 19:04:00,,0831.0,5.00,0.00,22.2,20.7,00.0,31.1,24.0,07.4,0000.0,0008.73,0002.91,0002.16
2023-02-10 19:05:00,,0831.0,4.99,0.00,22.2,20.7,00.0,31.1,24.0,07.3,0000.0,0008.76,0002.92,0002.18
2023-02-10 19:06:00,,0831.0,4.99,0.00,22.2,20.6,00.0,31.1,24.0,07.4,0000.0,0008.92,0002.94,0002.18
2023-02-10 19:07:00,,0831.0,5.04,0.00,22.2,20.6,00.0,31.1,24.0,07.2,0000.0,0008.59,0002.92,0002.19
2023-02-10 19:08:00,,0830.9,4.98,0.00,22.2,20.6,00.0,31.1,23.9,07.2,0000.0,0008.83,0002.97,0002.22
2023-02-10 19:09:00,,0830.9,5.01,0.00,22.2,20.6,00.0,31.1,23.9,07.3,0000.0,0009.11,0003.05,0002.24
2023-02-10 19:10:00,,0830.9,5.00,0.00,22.2,20.6,00.0,31.1,23.9,07.4,0000.0,0008.92,0003.10,0002.29
2023-02-10 19:11:00,,0830.9,4.99,0.00,22.2,20.6,00.0,31.1,24.0,07.6,0000.0,0008.96,0003.16,0002.35
2023-02-10 19:12:00,,0830.9,4.98,0.00,22.2,20.7,00.0,31.1,24.0,07.5,0000.0,0009.12,0003.21,0002.40
2023-02-10 19:13:00,,0830.9,5.05,0.00,22.2,20.7,00.0,31.1,24.0,07.4,0000.0,0008.39,0003.21,0002.43
2023-02-10 19:14:00,,0830.9,5.01,0.00,22.2,20.8,00.0,31.1,24.0,07.4,0000.0,0007.96,0003.26,0002.48
2023-02-10 19:15:00,,0830.9,5.05,0.00,22.2,20.9,00.0,31.1,24.1,07.5,0000.0,0007.84,0003.31,0002.51
2023-02-10 19:16:00,,0830.9,5.01,0.00,22.3,20.9,00.0,31.1,24.1,07.3,0000.0,0007.89,0003.35,0002.54
2023-02-10 19:17:00,,0830.8,5.01,0.00,22.3,20.9,00.0,31.1,24.1,07.3,0000.0,0007.64,0003.38,0002.58
2023-02-10 19:18:00,,0830.7,5.00,0.00,22.3,20.9,00.0,31.1,24.1,07.4,0000.0,0008.96,0003.42,0002.61
2023-02-10 19:19:00,,0830.8,4.97,0.00,22.3,20.9,00.0,31.1,24.1,07.4,0000.0,0009.17,0003.43,0002.63
2023-02-10 19:20:00,,0830.8,5.01,0.00,22.3,21.0,00.0,31.1,24.1,06.9,0000.0,0009.04,0003.43,0002.66
2023-02-10 19:21:00,,0830.8,5.00,0.00,22.3,21.0,00.0,31.1,24.2,06.9,0000.0,0009.00,0003.41,0002.67
2023-02-10 19:22:00,,0830.8,4.96,0.00,22.3,21.0,00.0,31.1,24.2,06.9,0000.0,0008.98,0003.43,0002.67
2023-02-10 19:23:00,,0830.8,5.01,0.00,22.3,21.0,00.0,31.1,24.2,07.0,0000.0,0009.25,0003.42,0002.68
2023-02-10 19:24:00,,0830.7,5.02,0.00,22.3,21.0,00.0,31.1,24.2,07.0,0000.0,0009.58,0003.44,0002.70
2023-02-10 19:25:00,,0830.7,4.97,0.00,22.3,21.0,00.0,31.1,24.2,07.0,0000.0,0010.12,0003.42,0002.71
2023-02-10 19:26:00,,0830.6,5.01,0.00,22.3,21.0,00.0,31.1,24.2,06.8,0000.0,0010.13,0003.40,0002.72
2023-02-10 19:27:00,,0830.6,5.00,0.00,22.3,21.0,00.0,31.1,24.2,06.8,0000.0,0010.07,0003.38,0002.73
2023-02-10 19:28:00,,0830.6,4.98,0.00,22.4,21.1,00.0,31.1,24.2,06.9,0000.0,0010.27,0003.36,0002.74
2023-02-10 19:29:00,,0830.6,5.03,0.00,22.4,21.2,00.0,31.1,24.3,07.1,0000.0,0009.62,0003.39,0002.78
2023-02-10 19:30:00,,0830.6,5.04,0.00,22.4,21.2,00.0,31.1,24.3,06.8,0000.0,0009.27,0003.40,0002.79
2023-02-10 19:31:00,,0830.6,4.99,0.00,22.4,21.1,00.0,31.1,24.2,06.6,0000.0,0009.29,0003.41,0002.80
2023-02-10 19:32:00,,0830.6,4.97,0.00,22.4,21.1,00.0,31.2,24.2,06.4,0000.0,0009.35,0003.45,0002.83
2023-02-10 19:33:00,,0830.6,4.98,0.00,22.4,21.1,00.0,31.2,24.2,06.3,0000.0,0009.42,0003.44,0002.84
2023-02-10 19:34:00,,0830.5,5.00,0.00,22.4,21.1,00.0,31.2,24.2,06.4,0000.0,0009.02,0003.42,0002.86
2023-02-10 19:35:00,,0830.6,4.96,0.00,22.4,21.1,00.0,31.2,24.3,06.5,0000.0,0008.91,0003.45,0002.86
2023-02-10 19:36:00,,0830.6,5.00,0.00,22.4,21.2,00.0,31.2,24.3,06.5,0000.0,0008.35,0003.48,0002.87
2023-02-10 19:37:00,,0830.6,5.03,0.00,22.4,21.2,00.0,31.2,24.3,06.3,0000.0,0008.92,0003.47,0002.89
2023-02-10 19:38:00,,0830.5,4.98,0.00,22.4,21.2,00.0,31.2,24.3,06.2,0000.0,0009.32,0003.47,0002.90
2023-02-10 19:39:00,,0830.6,5.01,0.00,22.5,21.2,00.0,31.2,24.3,06.4,0000.0,0009.22,0003.51,0002.90
2023-02-10 19:40:00,,0830.5,4.99,0.00,22.5,21.3,00.0,31.2,24.3,06.4,0000.0,0008.69,0003.48,0002.87
2023-02-10 19:41:00,,0830.5,4.99,0.00,22.5,21.3,00.0,31.2,24.4,06.4,0000.0,0008.46,0003.47,0002.85
2023-02-10 19:42:00,,0830.4,5.01,0.00,22.5,21.3,00.0,31.2,24.4,06.5,0000.0,0008.31,0003.45,0002.84
2023-02-10 19:43:00,,0830.5,5.00,0.00,22.5,21.3,00.0,31.2,24.4,06.5,0000.0,0009.24,0003.44,0002.82
2023-02-10 19:44:00,,0830.5,5.01,0.00,22.5,21.4,00.0,31.3,24.4,06.7,0000.0,0009.67,0003.44,0002.81
2023-02-10 19:45:00,,0830.5,4.98,0.00,22.5,21.4,00.0,31.3,24.4,06.9,0000.0,0010.36,0003.45,0002.81
2023-02-10 19:46:00,,0830.4,5.01,0.00,22.5,21.3,00.0,31.3,24.4,06.8,0000.0,0010.48,0003.43,0002.83
2023-02-10 19:47:00,,0830.4,5.00,0.00,22.5,21.3,00.0,31.3,24.4,06.9,0000.0,0010.89,0003.40,0002.84
2023-02-10 19:48:00,,0830.4,4.98,0.00,22.6,21.3,00.0,31.3,24.4,06.9,0000.0,0010.46,0003.41,0002.83
2023-02-10 19:49:00,,0830.4,5.03,0.00,22.6,21.3,00.0,31.3,24.4,06.9,0000.0,0009.94,0003.42,0002.83
2023-02-10 19:50:00,,0830.4,5.00,0.00,22.6,21.3,00.0,31.3,24.4,06.9,0000.0,0010.10,0003.45,0002.86
2023-02-10 19:51:00,,0830.4,5.01,0.00,22.6,21.4,00.0,31.3,24.5,07.0,0000.0,0010.75,0003.51,0002.89
2023-02-10 19:52:00,,0830.5,4.99,0.00,22.6,21.3,00.0,31.3,24.5,07.0,0000.0,0011.51,0003.61,0002.92
2023-02-10 19:53:00,,0830.5,5.01,0.00,22.6,21.3,00.0,31.3,24.4,06.8,0000.0,0011.67,0003.61,0002.93
2023-02-10 19:54:00,,0830.4,5.00,0.00,22.6,21.3,00.0,31.3,24.4,06.9,0000.0,0011.07,0003.61,0002.95
2023-02-10 19:55:00,,0830.5,5.04,0.00,22.6,21.4,00.0,31.3,24.4,06.7,0000.0,0011.70,0003.63,0002.96
2023-02-10 19:56:00,,0830.5,5.03,0.00,22.6,21.4,00.0,31.3,24.5,06.9,0000.0,0012.10,0003.65,0002.97
2023-02-10 19:57:00,,0830.5,5.00,0.00,22.6,21.4,00.0,31.4,24.5,06.6,0000.0,0013.56,0003.66,0002.95
2023-02-10 19:58:00,,0830.4,5.01,0.00,22.6,21.5,00.0,31.4,24.5,06.6,0000.0,0013.34,0003.67,0002.93
2023-02-10 19:59:00,,0830.4,5.01,0.00,22.7,21.5,00.0,31.4,24.6,06.6,0000.0,0013.09,0003.69,0002.91
